CZ-6A DEB, 54403

Orbit data source: Space-Track

CZ-6A DEB, 54403 is space debris in SSO originally from a launch on Fri, 11 Nov 2022 UTC launched from the Taiyaun Space Center, China (TSC). Debris objects in space refer to the collection of defunct objects orbiting the Earth. Examples of debris include non-operational satellites, rocket bodies, and fragments generated from explosions, collisions, or faulty payload assembly.

Loading next visibility...
Identifier
54403, 2022-151EB
Orbit
SSO
Country
Flag of CNCN / PRC
Related business
Manufacturer
SAST
Mission
Spacecraft
Bus & Motor
Unknown
Mass
Unknown
Launch date (UTC)
2022-11-11 (3 years ago)
Launch vehicle
Unknown
Launch site
Taiyaun Space Center, China (TSC)
Object type
Payload
Rocket body
Debris
Shape & HBR
Unknown shape, 0.1 m
Radar Cross Section
Small (<0.1 m²)

Expand to show TLE details & history
Last TLE update: 12 hours ago

TLE from 12 hours ago
0 CZ-6A DEB
1 54403U 22151EB  25351.55645431  .00006425  00000-0  24256-2 0  9994
2 54403  98.6749 341.5975 0113232 350.9328   8.9807 14.28160100160021
Epoch: 2025-12-17T13:21Z
TLE epoch observation values (Epoch: 2025-12-17T13:21:17.652Z)
Latitude
-0.00001°
Longitude
54.84934°
Altitude
720.562 km
Speed
7.537 km/s
True Right ascension
22h 46m 23s
True Declination
0° 00' 00"
Sunlit
Object was in daylight at epoch
Visualization orbit readout
Latitude
Unknown
Longitude
Unknown
Altitude
Unknown
Speed
Unknown
Apparent Right ascension
Unknown
Apparent Declination
Unknown
Sunlit
N/A
Visualization observer readout
Local Sidereal Time
00:26:25
Azimuth
Unknown
Elevation
Unknown
Doppler factor
Unknown
Orbital elements
Apogee altitude
876.256 km
Perigee altitude
713.81 km
Semi-major axis
7,173.17 km
Eccentricity
0.01132
Inclination
98.6749°
RAAN
341.5975°
Arg. of periapsis
350.9328°
True anomaly
9.18612°
Mean anomaly
8.9807°
Eccentric anomaly
9.08312°
Mean motion
3.57253 °/min
Orbital period
100.77 mins
BSTAR
0.0024256
Loading maneuver chart data...
Computing Atmospheric mass density...
Loading historical data...
Loading historical data...
Loading historical data...
Loading historical data...
Loading historical data...
Loading historical data...
Loading historical data...

Documentation

Showing up to 5 results
|